Regional Weather Roundup
Issued by NWS Little Rock, AR

Home | Current Version | Previous Version | Text Only | Print | Product List | Glossary On
Versions: 1 2 3 4 5 6 7 8 9 10 11 12 13 14 15 16 17 18 19 20 21 22 23 24 25 26 27 28 29 30 31 32 33 34 35 36 37 38 39 40 41 42 43 44 45 46 47 48 49 50
000
ASUS44 KLZK 261005
RWRLZK

WEATHER ROUNDUP FOR ARKANSAS
NATIONAL WEATHER SERVICE LITTLE ROCK AR
400 AM CST WED NOV 26 2014

NOTE: "FAIR" INDICATES FEW OR NO CLOUDS BELOW 12,000 FEET WITH NO
SIGNIFICANT WEATHER AND/OR OBSTRUCTIONS TO VISIBILITY.

ARZ001-003-010-029-261100-
NORTHWEST ARKANSAS

CITY           SKY/WX    TMP DP  RH WIND       PRES   REMARKS
FAYETTEVILLE   CLEAR     25  23  92 CALM      30.00F
FORT SMITH     CLEAR     32  27  81 NE7       30.04F WCI  26
HARRISON       CLEAR     29  24  82 E8        30.02F WCI  21
BENTONVILLE    CLEAR     34  21  60 S7        29.99F WCI  28
ROGERS         CLEAR     35  24  64 SE10      29.99F WCI  27
SILOAM SPGS    CLEAR     37  19  48 SE3       29.99F
HIGHFILL       CLEAR     32  24  72 S3        29.98F
$$

ARZ004-005-016-261100-
NORTH CENTRAL ARKANSAS

CITY           SKY/WX    TMP DP  RH WIND       PRES   REMARKS
BATESVILLE     MOCLDY    30  25  80 CALM      30.10F
FLIPPIN        CLEAR     27  19  74 CALM      30.06F
MTN HOME       PTCLDY    29  21  72 S5        30.04F WCI  24
$$

ARZ040-041-261100-
WEST CENTRAL ARKANSAS

CITY           SKY/WX    TMP DP  RH WIND       PRES   REMARKS
MENA             N/A     32  30  93 CALM        N/A
MOUNT IDA      CLEAR     27  25  92 CALM      30.03F
$$

ARZ009-017-025-026-028-261100-
NORTHEAST ARKANSAS

CITY           SKY/WX    TMP DP  RH WIND       PRES   REMARKS
CORNING        FAIR      28  28 100 CALM      30.12F
JONESBORO      PTCLDY    30  28  92 NE3       30.12F
NEWPORT        MOCLDY    31  29  92 SE5       30.13F WCI  26
WALNUT RIDGE   PTCLDY    30  27  86 CALM      30.10F
BLYTHEVILLE    CLEAR     39  28  64 S5        30.14F
$$

ARZ022-023-033-042-044-261100-
CENTRAL ARKANSAS

CITY           SKY/WX    TMP DP  RH WIND       PRES   REMARKS
LITTLE ROCK    MOCLDY    33  29  85 CALM      30.11F
N LITTLE ROCK    N/A     36  32  85 S3        30.11F
JACKSONVILLE   PTCLDY    27  25  91 CALM      30.10F
SEARCY         MOCLDY    28  27  96 CALM      30.13F
HOT SPRINGS    CLEAR     30  28  92 CALM      30.08F
RUSSELLVILLE   CLEAR     28  25  88 CALM      30.06F
CLINTON        FAIR      25  23  93 CALM      30.12F
$$

ARZ036-261100-
EAST ARKANSAS

CITY           SKY/WX    TMP DP  RH WIND       PRES   REMARKS
WEST MEMPHIS   CLEAR     29  29 100 S5        30.13F FOG     WCI  24
$$

ARZ050-053-066-070-073-261100-
SOUTHWEST ARKANSAS

CITY           SKY/WX    TMP DP  RH WIND       PRES   REMARKS
ARKADELPHIA    FAIR      32  32 100 CALM      30.11F
CAMDEN         PTCLDY    32  30  93 MISG      30.12F
TEXARKANA      CLEAR     40  33  76 S8        30.09F
EL DORADO      PTCLDY    34  31  88 CALM      30.12F
DE QUEEN       PTCLDY    31  31 100 CALM      30.06F FOG
$$

ARZ056-057-069-261100-
SOUTHEAST ARKANSAS

CITY           SKY/WX    TMP DP  RH WIND       PRES   REMARKS
PINE BLUFF     MOCLDY    36  31  82 CALM      30.12F
STUTTGART      MOCLDY    37  30  75 SE6       30.12F
MONTICELLO     MOCLDY    33  29  85 CALM      30.13F

$$




USA.gov is the U.S. government's official web portal to all federal, state and local government web resources and services.